Regional Weather Roundup
Issued by NWS Northern Indiana

Home | Current Version | Previous Version | Text Only | Print | Product List | Glossary Off
Versions: 1 2 3 4 5 6 7 8 9 10 11 12 13 14 15 16 17 18 19 20 21 22 23 24 25 26 27 28 29 30 31 32 33 34 35 36 37 38 39 40 41 42 43 44 45 46 47 48 49 50

000
ASUS43 KIWX 130700
RWRIWX

KIWX WEATHER ROUNDUP
NATIONAL WEATHER SERVICE NORTHERN INDIANA
200 AM EST SAT FEB 13 2016

NOTE: "FAIR" INDICATES FEW OR NO CLOUDS BELOW 12,000 FEET WITH NO
SIGNIFICANT WEATHER AND/OR OBSTRUCTIONS TO VISIBILITY.

* THESE STATIONS ARE NOT UNDER NWS QUALITY CONTROL. THEY ALSO MAY NOT
  REPORT WEATHER SUCH AS PRECIPITATION OR FOG.

INZ001>027-130800-
NORTHERN INDIANA

CITY           SKY/WX    TMP DP  RH WIND       PRES   REMARKS
SOUTH BEND     LGT SNOW  11   6  81 N13       30.37R WCI  -4
GOSHEN         MIX PCPN   9   2  73 NE12      30.36R WCI  -6
ANGOLA*        CLEAR      5  -4  66 N9        30.30R WCI  -9
FORT WAYNE     CLOUDY    11   2  67 N16       30.35R WCI  -6
PERU/GRISSOM   MOCLDY    11   2  67 NW16      30.36R WCI  -5

$$
INZ028>050-130800-
CENTRAL INDIANA

CITY           SKY/WX    TMP DP  RH WIND       PRES   REMARKS
LAFAYETTE      CLEAR     10  -5  50 NW15      30.45R WCI  -7
KOKOMO*        CLEAR     12   1  62 NW17      30.37R WCI  -5
MUNCIE*        PTCLDY    12   2  64 NW13      30.34R WCI  -3
INDIANAPOLIS   PTCLDY    14  -1  51 NW14      30.39R WCI  -1

$$
MIZ043>046-050>051-056>058-064>065-071>073-077>080-130800-
SOUTHWEST LOWER MICHIGAN

CITY           SKY/WX    TMP DP  RH WIND       PRES   REMARKS
BATTLE CREEK   PTCLDY     4  -7  60 NW13      30.33R WCI -13
BENTON HARBOR  LGT SNOW  13   5  70 NW15G24   30.39R WCI  -3
COLDWATER*     CLEAR      6  -8  53 NW10      30.33R WCI  -9
HILLSDALE*     CLEAR      4  -8  57 NW16      30.28R WCI -15
HOLLAND        LGT SNOW   7   1  76 N5        30.37S WCI  -2
GRAND RAPIDS   PTCLDY     5  -3  69 W8        30.34S WCI  -8
KALAMAZOO      PTCLDY     4  -6  63 N12       30.35R WCI -12
STURGIS*       PTCLDY     3  -6  65 N7        30.34R WCI  -9
THREE RIVERS*  FAIR       6  -4  64 N5        30.36R WCI  -3

$$
OHZ001>008-015>018-024>025-130800-
NORTHWEST OHIO

CITY           SKY/WX    TMP DP  RH WIND       PRES   REMARKS
DEFIANCE       CLEAR     10  -4  53 N12       30.34R WCI  -5
FINDLAY        MOCLDY    10   1  67 N9        30.29R WCI  -3
TOLEDO EXPRESS PTCLDY     7  -7  52 NW13      30.31R WCI  -9
TOLEDO METCALF CLEAR      9  -8  46 NW16G24   30.32R WCI  -8
LIMA           PTCLDY    11   4  73 N10       30.28R WCI  -3

$$
AND FOR LAKE MICHIGAN COASTAL AND OPEN LAKE BUOY OBSERVATIONS

STATION/POSITION TEMP    WIND        PRES    VSBY  WAVE
                 AIR SEA DIR/SP/G                  HT/PER
                 (F)     (DEG/KT/KT) (MB)    (MI)  (FT/S)
CALUMET HARBOR           300/ 13/ 17   N/A
MICHIGAN CITY     14     310/ 25/ 28   N/A
BURNS HARBOR      15     340/ 20/ 24 1030.1R
SAINT JOSEPH      16     330/ 17/ 30 1028.4R

$$
&&



USA.gov is the U.S. government's official web portal to all federal, state and local government web resources and services.